Location: Härggis
(46.9540°N, 8.4897°E)
Time: 21:34:06
(UTC+00:00)

SL-16 R/B - Pass Details

Date: 27 May 2022
Orbit: 985 x 1006 km, 99.6° (Epoch: 04 July)

Event Time Altitude Azimuth Distance (km) Brightness Sun altitude
Exits shadow 00:00:48 - 125° (SE) 3,216 5.0 -21.3°
Reaches altitude 10° 00:02:09 10° 119° (ESE) 2,760 4.7 -21.2°
Maximum altitude 00:07:27 31° 60° (ENE) 1,679 4.1 -21.1°
Drops below altitude 10° 00:12:48 10° 1° (N) 2,786 6.0 -20.9°
Sets 00:15:34 0° 352° (N) 3,742 6.8 -20.8°
